www.pogodaiklimat.ru
ПОГОДА в Барре
Время
и дата
03:51 19.05
04:51 19.05
05:51 19.05
06:51 19.05
07:51 19.05
08:51 19.05
09:51 19.05
10:51 19.05
11:51 19.05
12:51 19.05
13:51 19.05
14:51 19.05
15:51 19.05
16:51 19.05
17:51 19.05
18:51 19.05
19:51 19.05
20:51 19.05
21:51 19.05
22:51 19.05
23:33 19.05
23:51 19.05
00:51 20.05
01:09 20.05
01:51 20.05
02:51 20.05
03:51 20.05
04:51 20.05
05:51 20.05
06:51 20.05
07:51 20.05
08:51 20.05
09:51 20.05
10:51 20.05
11:51 20.05
12:51 20.05
13:51 20.05
14:51 20.05
15:51 20.05
16:51 20.05
17:51 20.05
18:51 20.05
19:51 20.05
20:51 20.05
21:51 20.05
22:51 20.05
23:51 20.05
00:51 21.05
Ветер
(напр.,м/с)
Видим. Явления Облачность Т
(С)
Тd
(С)
f
(%)
Тe
(С)
Тes
(С)
Комфортность P
(гПа)
Po
(гПа)
Тmin
(С)
Tmax
(С)
R
(мм)
R24
(мм)
S
(см)
штиль 0 16 км 8/8 1320 м +8.9 +7.2 89 +8 +8 1018.4 976.0
штиль 0 16 км 10/10 1470 м +10.0 +8.3 89 +9 +9 1018.6 976.3
штиль 0 16 км 8/8 1500 м +11.1 +9.4 89 +10 +11 1019.0 976.7
штиль 0 16 км ясно +12.8 +11.1 89 +12 +14 1019.3 977.0 +8.3 +12.8
СВ 3 16 км 5/5 1500 м +13.9 +11.1 83 +13 +15 1019.7 977.3
В 2 16 км 10/10 1650 м +17.2 +11.1 67 +18 +18 1019.3 977.0
СВ 4 16 км 10/10 750 м +18.3 +12.2 68 +18 +18 1018.8 976.7
СВ 3 16 км 10/10 1500 м +19.4 +11.7 61 +21 +21 комфорт 1018.7 976.3
нст 2 16 км 10/10 930 м +20.0 +11.1 57 +22 +22 комфорт 1018.3 976.0
ЮВ 3 16 км 10/10 1500 м +20.0 +10.6 55 +22 +22 комфорт 1017.8 975.7 +12.8 +21.1
нст 2 16 км 10/10 1260 м +20.0 +10.6 55 +22 +22 комфорт 1017.4 975.0
В 2 16 км 10/10 1650 м +21.1 +10.0 49 +23 +23 комфорт 1016.9 974.7
нст 2 16 км 8/8 1650 м +21.7 +10.0 47 +23 +25 комфорт 1016.8 974.7
ЮВ 2 16 км ясно +21.7 +10.6 49 +23 +30 комфорт 1016.8 974.7
ЮВ 3 16 км ясно +20.6 +11.1 54 +23 +26 комфорт 1017.2 975.0
ЮВ 3 16 км ясно +18.9 +10.6 59 +20 +21 1017.3 975.0 +18.9 +21.7
Ю 3 16 км ясно +16.1 +11.1 72 +16 +16 1017.8 975.7
Ю 4 16 км ясно +15.6 +11.7 78 +15 +15 1018.3 976.0
Ю 5 16 км ясно +15.0 +11.1 77 +14 +14 1018.2 976.0
Ю 3 16 км ясно +13.9 +11.1 83 +13 +13 1018.6 976.3
штиль 0 16 км 8/8 360 м +13.3 +10.6 84 +13 +13 976.3
Ю 2 16 км 10/10 360 м +13.3 +11.1 87 +13 +13 1018.3 976.0
штиль 0 16 км 10/10 390 м +13.3 +11.1 87 +13 +13 1018.2 976.0 +13.3 +18.9
Ю 2 16 км 8/8 390 м +12.2 +10.0 86 +11 +11 976.0
штиль 0 16 км 8/8 1500 м +12.2 +10.6 90 +12 +12 1018.2 976.0
штиль 0 16 км ясно +11.1 +9.4 89 +10 +10 1017.9 975.7
штиль 0 16 км ясно +10.6 +8.3 86 +10 +10 1017.7 975.4
штиль 0 16 км ясно +10.6 +8.9 89 +10 +10 1018.0 975.7
штиль 0 16 км ясно +12.8 +11.1 89 +12 +13 1018.0 975.7
штиль 0 16 км ясно +13.9 +11.7 87 +13 +16 1018.4 976.3 +9.4 +14.4
ЮВ 3 16 км ясно +17.8 +12.2 70 +18 +22 1018.0 975.7
ЮВ 2 16 км ясно +19.4 +12.8 66 +21 +29 комфорт 1017.5 975.4
штиль 0 16 км ясно +21.1 +12.8 59 +23 +40 комфорт 1017.4 975.4
В 2 16 км ясно +23.9 +13.9 54 +26 +42 жарко 1017.2 975.4
штиль 0 16 км ясно +25.0 +13.9 50 +27 +52 опасность
солнечного
удара
1016.8 975.0
нст 2 16 км ясно +26.7 +13.9 45 +29 +47 жарко 1016.1 974.4 +13.9 +26.7
Ю 3 16 км ясно +27.2 +13.3 42 +29 +43 жарко 1015.5 973.7
нст 3 16 км 2/2 1950 м +27.2 +13.9 44 +29 +39 жарко 1015.0 973.1
Ю 3 16 км ясно +27.2 +13.9 44 +29 +38 жарко 1014.7 972.8
нст 3 16 км ясно +26.7 +13.9 45 +29 +35 жарко 1014.3 972.4
Ю 4 16 км ясно +25.6 +14.4 50 +28 +30 жарко 1013.9 972.1
Ю 4 16 км ясно +23.3 +13.3 53 +26 +27 жарко 1014.2 972.4 +23.3 +27.8
Ю 3 16 км слабый дождь ясно +22.2 +12.8 55 +25 +25 комфорт 1014.3 972.8
ЮЗ 2 16 км 2/0 2400 m
[Ac]
+20.6 +13.3 63 +24 +24 комфорт 1014.8 973.1
штиль 0 16 км 2/0 2250 m
[Ac]
+19.4 +13.3 68 +21 +21 комфорт 1014.7 973.1
штиль 0 16 км ясно +17.8 +12.8 73 +18 +18 1014.4 972.8
штиль 0 16 км ясно +15.6 +12.8 83 +15 +15 1014.2 972.4
штиль 0 16 км ясно +15.6 +12.2 80 +15 +15 1013.7 972.1 +15.0 +23.3
Местоположение метеостанции Knapp State Airport: широта 44.2047 долгота -72.5661 высота над уровнем моря 355 м.
В архиве по умолчанию представлена погода в Барре за последние 1-2 суток. Обновление информации о фактической погоде в базе происходит ежечасно! Архивные данные за месяц целиком и за предыдущие месяцы Вы можете получить, выбрав интересующий диапазон дат из раскрывающегося списка и нажав кнопку "Ввод!".
Внимание! Архив погоды МЕТАР в базе сайта по станциям, не включенным в климатический монитор, хранится не более 60 дней. Нет смысла пытаться выбрать более раннюю дату.
*Определитесь, кто Вы:
Внимание! Время в таблицах - местное (без учета летнего времени). Для получения всемирного времени необходимо вычесть поправку, которая равна -5 ч.
Смотрите также архив погоды в соседних городах и на ближайших метеорологических станциях:
Партнеры нашего сайта:      
Пояснения к столбцам:
  • Ветер - указаны скорость ветра в м/с - средняя за 10 мин, порывы в срок и между сроками (в фигурных скобках) и направление, откуда дует ветер: С - северный,
  • СВ - северо-восточный, В - восточный, ЮВ - юго-восточный, Ю - южный, ЮЗ - юго-западный, З - западный, СЗ - северо-западный.
  • Видимость - горизонтальная дальность видимости в метрах или километрах. При видимости от 1 до 10 км при отсутствии осадков обычно наблюдается дымка, при ухудшении видимости до 1 км и менее - туман. В сухую погоду видимость может ухудшаться дымом, пылью или мглою.
  • Явления - указаны атмосферные явления, наблюдавшиеся в срок или в последний час перед сроком; фигурными скобками обозначены явления, наблюдавшиеся между сроками (за 1-3 часа до срока); квадратными скобками обозначены град или гололедные отложения с указанием их диаметра в мм.
  • Облачность - указаны через наклонную черту общая и нижняя облачность в баллах и высота нижней границы облаков в метрах; квадратными скобками обозначены формы облаков: Ci - перистые, Cs - перисто-слоистые, Cc - перисто-кучевые, Ac - высококучевые, As - высокослоистые, Sc - слоисто-кучевые, Ns - слоисто-дождевые, Cu - кучевые, Cb - кучево-дождевые. Подробнее классификацию облаков см. в Атласе облаков (PDF).
  • T - Температура воздуха - температура, измеренная на высоте 2 м над землей.
  • Td - Температура точки росы - температура, при понижении до которой содержащийся в воздухе водяной пар достигнет насыщения.
  • f - Относительная влажность воздуха - влажноcть воздуха, измеренная на высоте 2 м над землей.
  • Te - Эффективная температура - температура, которую ощущает одетый по сезону человек в тени. Характеристика душности погоды. При расчете учитывается влияние влажности воздуха и скорости ветра на теплоощущения человека.
  • Tes - Эффективная температура на солнце - температура, которую ощущает человек, с поправкой на солнечный нагрев. Характеристика знойности погоды. Зависит от высоты солнца над горизонтом, облачности и скорости ветра. Ночью, в пасмурную погоду, а также при ветре 12 м/с и более поправка равна нулю.
  • P - Атмосферное давление - приведенное к уровню моря атмосферное давление.
  • Po - Атмосферное давление - измеренное на уровне метеостанции атмосферное давление.
  • Tmin - Минимальная температура - минимум температуры воздуха на высоте 2 м над землей.
  • Tmax - Максимальная температура - максимум температуры воздуха на высоте 2 м над землей.
  • R - Количество осадков - Количество выпавших осадков за период времени, мм. При наведении курсора мыши на число - период времени, за который выпало указанное количество осадков.
  • R24 - Количество осадков - Количество выпавших осадков за 24 часа, мм.
  • S - Снежный покров - Высота снежного покрова, см. При наведении курсора мыши на число - состояние снежного покрова и степень покрытия местности в баллах.